Location: Moscow
(55.7500°N, 37.5830°E)
Time: 23:55:25
(UTC+03:00)

COSMOS 2251 DEB - Pass Details

Date: 12 July 2022
Orbit: 738 x 847 km, 74.1° (Epoch: 17 August)

Event Time Altitude Azimuth Distance (km) Brightness Sun altitude
Rises 22:17:04 0° 310° (NW) 3,260 ? -7.0°
Reaches altitude 10° 22:22:41 10° 358° (N) 2,298 ? -7.4°
Maximum altitude 22:22:51 10° 360° (N) 2,297 ? -7.4°
Drops below altitude 10° 22:23:02 10° 2° (N) 2,297 ? -7.4°
Sets 22:28:33 0° 50° (NE) 3,196 ? -7.8°
